Weather History for Vero Beach, FL

Change the Weather History Date:

Friday, May 17, 2013

  Actual Average Record
Temperature  
Mean Temperature 75 °F 76 °F  
Max Temperature 84 °F 85 °F 95 °F (1945)
Min Temperature 65 °F 68 °F 53 °F (1973)
Degree Days  
Heating Degree Days 0 0  
Month to date heating degree days 0 0  
Since 1 July heating degree days 398 455  
Cooling Degree Days 10 11  
Month to date cooling degree days 141 168  
Year to date cooling degree days 732 626  
Growing Degree Days 23 (Base 50)    
Moisture  
Dew Point 66 °F    
Average Humidity 76    
Maximum Humidity 93    
Minimum Humidity 58    
Precipitation  
Precipitation 0.00 in 0.10 in 1.38 in (1945)
Month to date precipitation 6.07 1.47  
Year to date precipitation 13.10 13.48  
Sea Level Pressure  
Sea Level Pressure 30.09 in    
Wind  
Wind Speed 8 mph (East)    
Max Wind Speed 17 mph    
Max Gust Speed 23 mph    
Visibility 10 miles    
Events      
T = Trace of Precipitation, MM = Missing Value Source: NWS Daily Summary

Daily Weather History Graph

Daily Weather History Graph

Search for Another Location

Airport:

Trip Planner

Search our weather history database for the weather conditions in past years. The results will help you decide how hot, cold, wet, or windy it might be!

Date:

Astronomy

May. 17, 2013 Rise Set
Actual Time 6:31 AM EDT 8:05 PM EDT
Civil Twilight 6:05 AM EDT 8:30 PM EDT
Nautical Twilight 5:35 AM EDT 9:01 PM EDT
Astronomical Twilight 5:03 AM EDT 9:33 PM EDT
Moon 12:47 PM EDT (5/17) 1:09 AM EDT (5/17)
Length of Visible Light 14h 24m
Length of Day
13h 33m
Waxing Crescent, 45% of the Moon is Illuminated
May 17
Waxing Crescent
May 18
First Quarter
May 25
Full
May 31
Last Quarter
Jun 8
New

Hourly Weather History & Observations

Time (EDT) Temp. Heat Index Dew Point Humidity Pressure Visibility Wind Dir Wind Speed Gust Speed Precip Events Conditions
12:53 AM 72.0 °F - 63.0 °F 73% 30.08 in 10.0 mi ESE 3.5 mph - N/A   Clear
1:53 AM 73.9 °F - 64.0 °F 71% 30.07 in 10.0 mi SE 8.1 mph - N/A   Clear
2:53 AM 73.9 °F - 64.0 °F 71% 30.05 in 10.0 mi SSE 4.6 mph - N/A   Clear
3:53 AM 73.0 °F - 64.9 °F 76% 30.04 in 10.0 mi Variable 3.5 mph - N/A   Partly Cloudy
4:53 AM 66.9 °F - 64.0 °F 90% 30.05 in 10.0 mi Calm Calm - N/A   Clear
5:53 AM 66.0 °F - 63.0 °F 90% 30.06 in 10.0 mi Calm Calm - N/A   Clear
6:53 AM 64.9 °F - 62.1 °F 90% 30.08 in 10.0 mi Calm Calm - N/A   Clear
7:53 AM 70.0 °F - 66.0 °F 87% 30.09 in 10.0 mi Calm Calm - N/A   Scattered Clouds
8:53 AM 78.1 °F - 66.0 °F 66% 30.11 in 10.0 mi North 3.5 mph - N/A   Scattered Clouds
9:53 AM 80.1 °F 82.7 °F 68.0 °F 67% 30.11 in 10.0 mi East 5.8 mph - N/A   Clear
10:53 AM 81.0 °F 83.8 °F 68.0 °F 65% 30.11 in 10.0 mi ENE 8.1 mph - N/A   Scattered Clouds
11:53 AM 82.9 °F 85.4 °F 66.9 °F 58% 30.11 in 10.0 mi East 9.2 mph - N/A   Clear
12:53 PM 82.0 °F 84.9 °F 68.0 °F 62% 30.11 in 10.0 mi East 11.5 mph - N/A   Clear
1:53 PM 82.9 °F 85.4 °F 66.9 °F 58% 30.09 in 10.0 mi East 12.7 mph - N/A   Clear
3:53 PM 81.0 °F 83.3 °F 66.9 °F 62% 30.09 in 10.0 mi East 11.5 mph - N/A   Partly Cloudy
4:53 PM 80.1 °F 82.1 °F 66.0 °F 62% 30.09 in 10.0 mi East 12.7 mph - N/A   Scattered Clouds
5:53 PM 81.0 °F 83.3 °F 66.9 °F 62% 30.09 in 10.0 mi East 13.8 mph - N/A   Scattered Clouds
6:53 PM 79.0 °F - 66.9 °F 66% 30.08 in 10.0 mi East 12.7 mph - N/A   Overcast
7:53 PM 78.1 °F - 66.9 °F 68% 30.09 in 10.0 mi East 11.5 mph - N/A   Partly Cloudy
8:53 PM 77.0 °F - 66.9 °F 71% 30.10 in 10.0 mi East 8.1 mph - N/A   Clear
9:53 PM 75.9 °F - 68.0 °F 76% 30.10 in 10.0 mi East 10.4 mph - N/A   Clear
10:53 PM 77.0 °F - 68.0 °F 74% 30.11 in 10.0 mi ESE 8.1 mph - N/A   Mostly Cloudy
11:21 PM 77.0 °F - 68.0 °F 74% 30.11 in 10.0 mi ESE 8.1 mph - N/A   Overcast
11:31 PM 77.0 °F - 68.0 °F 74% 30.11 in 10.0 mi ESE 11.5 mph - N/A   Mostly Cloudy
11:53 PM 75.9 °F - 68.0 °F 76% 30.11 in 10.0 mi ESE 8.1 mph - N/A   Partly Cloudy